User: anonymous   Login
Location: Mentone
(34.5413°N, 85.5351°W)
Time: 10:56:20
(UTC-06:00)
Language:

Centaur AC-72 - Orbit

View from above orbital plane
View from above orbital plane
View from above satellite
View from above satellite

Ground track
Ground track

The orbit data is extracted from the following two-line orbital elements,

1 21907U 92013B   17347.09447521 -.00000084  00000-0  00000+0 0  9990
2 21907  18.8753 211.9901 6975275 255.9953 247.9399  2.25607946212329
Epoch (UTC): 13 December 2017 02:16:02
Eccentricity: 0.6975275
inclination: 18.8753°
perigee height: 1049 km
apogee height: 35307 km
right ascension of ascending node: 211.9901°
argument of perigee: 255.9953°
revolutions per day: 2.25607946
mean anomaly at epoch: 247.9399°
orbit number at epoch: 21232

The dashed part of the orbit path shows where the satellite is in the earth's shadow,  

DLR